EW5925 Weather Reports


time (UTC)temp
C
wind
direction
speed
KPH
gust
KPH
rain 1hr
cm
rain 24hr
cm
rain mn
cm
humidity
%
barometer
mb
20260504211058 17 253 1.6 4.8 0.00 0.03 0.03 95 1017.5
20260504211035 17 149 0.0 0.0 0.00 0.03 0.03 95 1017.5
20260504210109 17 149 0.0 0.0 0.00 0.03 0.03 95 1017.4
20260504205553 17 149 0.0 0.0 0.00 0.03 0.03 94 1017.3
20260504205052 17 149 0.0 3.2 0.00 0.03 0.03 94 1017.3
20260504204552 17 149 0.0 3.2 0.00 0.03 0.03 94 1017.2
20260504204052 17 149 0.0 3.2 0.00 0.03 0.03 94 1017.2
20260504203553 17 149 0.0 3.2 0.00 0.03 0.03 94 1017.1
20260504203054 17 148 0.0 3.2 0.00 0.03 0.03 94 1017.2
20260504202814 17 148 0.0 3.2 0.00 0.03 0.03 94 1017.1
20260504202048 17 202 1.6 3.2 0.00 0.03 0.03 94 1017.1
20260504201550 17 202 0.0 3.2 0.00 0.03 0.03 94 1017.0
20260504201043 17 202 0.0 3.2 0.03 0.03 0.03 94 1017.0
20260504200541 17 202 0.0 3.2 0.03 0.03 0.03 94 1016.8
20260504200039 17 202 0.0 3.2 0.03 0.03 0.03 94 1016.8
20260504195541 17 202 0.0 1.6 0.03 0.03 0.03 94 1016.7
20260504195304 17 202 1.6 3.2 0.03 0.03 0.03 94 1016.6
20260504194536 17 202 1.6 3.2 0.03 0.03 0.03 94 1016.6
20260504194037 17 202 1.6 3.2 0.03 0.03 0.03 94 1016.5
20260504193536 17 202 0.0 3.2 0.03 0.03 0.03 94 1016.5
20260504193036 17 202 0.0 3.2 0.03 0.03 0.03 94 1016.3
20260504192535 17 202 0.0 4.8 0.03 0.03 0.03 94 1016.3
20260504192033 17 202 0.0 4.8 0.03 0.03 0.03 94 1016.5
20260504191545 17 202 1.6 4.8 0.00 0.00 0.03 94 1016.3
20260504191036 17 202 1.6 4.8 0.00 0.00 0.00 94 1016.2
20260504190527 17 202 0.0 3.2 0.00 0.00 0.00 94 1016.1
20260504190246 17 202 0.0 1.6 0.00 0.00 0.00 94 1016.2
20260504185523 17 202 0.0 1.6 0.00 0.00 0.00 94 1016.1
20260504185026 17 202 0.0 0.0 0.00 0.00 0.00 94 1016.1
20260504184509 17 202 0.0 0.0 0.00 0.00 0.00 94 1016.1
20260504184011 17 202 0.0 1.6 0.00 0.00 0.00 94 1016.2
20260504183446 17 202 0.0 1.6 0.00 0.00 0.00 94 1016.1
20260504182729 18 202 0.0 0.0 0.00 0.00 0.00 94 1016.1
20260504182230 18 202 0.0 0.0 0.00 0.00 0.00 94 1016.0
20260504181942 18 202 0.0 0.0 0.00 0.00 0.00 94 1016.0
20260504181223 18 202 0.0 0.0 0.00 0.00 0.00 94 1015.9
20260504180718 18 202 0.0 0.0 0.00 0.00 0.00 94 1015.9
20260504180224 18 202 0.0 0.0 0.00 0.00 0.00 94 1015.8
20260504175651 18 202 0.0 0.0 0.00 0.00 0.00 94 1015.8
20260504175137 18 202 0.0 1.6 0.00 0.00 0.00 94 1015.8
20260504174903 18 202 0.0 3.2 0.00 0.00 0.00 94 1015.9
20260504174134 18 202 0.0 3.2 0.00 0.00 0.00 94 1016.0
20260504173633 18 202 0.0 3.2 0.00 0.00 0.00 94 1016.0
20260504173133 18 202 0.0 0.0 0.00 0.00 0.00 94 1016.0
20260504172625 18 202 0.0 0.0 0.00 0.00 0.00 94 1015.9
20260504172350 18 202 0.0 0.0 0.00 0.00 0.00 94 1015.8
20260504171623 18 202 0.0 0.0 0.00 0.03 0.00 94 1015.8
20260504171121 18 202 0.0 0.0 0.00 0.03 0.00 94 1015.8
20260504170841 18 202 0.0 0.0 0.00 0.03 0.00 94 1016.0
20260504170117 18 202 0.0 0.0 0.00 0.03 0.00 94 1015.9
20260504160253 18 189 1.6 6.4 0.00 0.03 0.00 94 1016.5
20260504151006 17 89 0.0 0.0 0.00 0.03 0.00 92 1016.5
20260504150505 17 89 0.0 0.0 0.00 0.03 0.00 92 1016.6
20260504140939 17 89 0.0 0.0 0.00 0.03 0.00 91 1017.1
20260504140921 18 89 0.0 0.0 0.00 0.03 0.00 91 1017.2
20260504130620 18 89 0.0 0.0 0.00 0.03 0.03 91 1017.5
20260504120317 19 89 0.0 0.0 0.00 0.03 0.03 90 1017.8
20260504110718 20 89 0.0 0.0 0.00 0.03 0.03 89 1018.2
20260504110215 20 89 0.0 0.0 0.00 0.03 0.03 89 1018.2
20260504100128 21 89 0.0 3.2 0.00 0.03 0.03 88 1018.0
20260504081821 22 89 1.6 6.4 0.00 0.03 0.03 84 1017.0
20260504081519 22 89 1.6 6.4 0.00 0.03 0.03 84 1017.0
20260504080733 22 89 1.6 4.8 0.00 0.03 0.03 84 1016.8
20260504080208 22 89 1.6 4.8 0.00 0.03 0.03 83 1016.8
20260504070157 23 124 3.2 11.3 0.00 0.03 0.03 78 1016.2
20260504050655 26 121 4.8 12.9 0.00 0.03 0.03 68 1016.0
20260504050156 27 141 4.8 12.9 0.00 0.03 0.03 67 1015.9
20260504045655 27 122 3.2 11.3 0.00 0.03 0.03 67 1015.9
20260504045153 27 58 3.2 11.3 0.00 0.03 0.03 67 1015.9
20260504044653 27 124 3.2 14.5 0.00 0.03 0.03 66 1015.9
20260504044152 27 115 3.2 16.1 0.00 0.03 0.03 65 1015.9
20260504043645 27 122 3.2 16.1 0.00 0.03 0.03 65 1015.8
20260504043406 27 112 3.2 12.9 0.00 0.03 0.03 65 1015.8
20260504042641 27 68 4.8 12.9 0.00 0.03 0.03 65 1015.8
20260504042139 27 126 6.4 16.1 0.00 0.03 0.03 66 1015.8
20260504041639 27 124 6.4 16.1 0.00 0.03 0.03 65 1015.8
20260504041139 27 120 4.8 16.1 0.00 0.03 0.03 64 1015.9
20260504040824 27 109 6.4 16.1 0.00 0.03 0.03 64 1015.9
20260504040711 27 122 4.8 16.1 0.00 0.03 0.03 64 1015.9
20260504035553 27 122 8.0 16.1 0.00 0.03 0.03 64 1015.9
20260504035053 27 121 6.4 16.1 0.00 0.03 0.03 64 1016.0
20260504034555 27 115 3.2 12.9 0.00 0.03 0.03 65 1016.0
20260504034053 27 59 4.8 12.9 0.00 0.03 0.03 66 1016.0
20260504033553 27 81 4.8 12.9 0.00 0.03 0.03 65 1016.1
20260504033054 27 117 4.8 16.1 0.00 0.03 0.03 63 1016.1
20260504032553 27 39 3.2 16.1 0.00 0.03 0.03 63 1016.2
20260504032054 27 145 3.2 12.9 0.00 0.03 0.03 63 1016.1
20260504031553 27 104 4.8 12.9 0.00 0.03 0.03 63 1016.2
20260504031050 28 113 4.8 14.5 0.00 0.03 0.03 64 1016.3
20260504030549 28 120 4.8 14.5 0.00 0.03 0.03 64 1016.5
20260504030055 28 109 4.8 14.5 0.00 0.03 0.03 64 1016.6
20260504025540 27 169 3.2 14.5 0.00 0.03 0.03 63 1016.5
20260504025038 27 141 4.8 14.5 0.00 0.03 0.03 63 1016.6
20260504024539 27 132 4.8 16.1 0.00 0.03 0.03 63 1016.7
20260504024036 27 120 6.4 16.1 0.00 0.03 0.03 64 1016.8
20260504023759 27 114 6.4 16.1 0.00 0.03 0.03 63 1016.9
20260504023035 27 111 6.4 17.7 0.00 0.03 0.03 63 1017.0
20260504022535 27 118 6.4 17.7 0.00 0.03 0.03 64 1017.1
20260504022035 27 108 4.8 12.9 0.00 0.03 0.03 64 1017.1
20260504021535 27 118 4.8 12.9 0.00 0.03 0.03 65 1017.1
20260504021034 27 128 3.2 12.9 0.00 0.03 0.03 66 1017.2
20260504020534 27 77 4.8 14.5 0.00 0.03 0.03 66 1017.3
20260504020032 26 133 6.4 14.5 0.00 0.03 0.03 66 1017.4
20260504015747 26 114 6.4 14.5 0.00 0.03 0.03 66 1017.5
20260504015024 26 93 6.4 14.5 0.00 0.03 0.03 64 1017.5
20260504014747 27 116 4.8 14.5 0.00 0.03 0.03 64 1017.5
20260504014024 27 113 3.2 14.5 0.00 0.03 0.03 65 1017.6
20260504013511 27 124 3.2 11.3 0.00 0.03 0.03 66 1017.8
20260504013010 26 54 4.8 11.3 0.00 0.03 0.03 66 1017.9
20260504012508 26 122 3.2 11.3 0.00 0.03 0.03 65 1017.9
20260504012009 26 123 3.2 11.3 0.00 0.03 0.03 65 1018.0
20260504011731 26 111 3.2 12.9 0.00 0.03 0.03 66 1018.0
20260504011228 26 122 4.8 12.9 0.00 0.03 0.03 67 1018.0
20260504010504 26 119 4.8 12.9 0.00 0.03 0.03 67 1018.1
20260504010002 26 118 4.8 12.9 0.00 0.03 0.03 66 1018.2
20260504005455 26 122 3.2 12.9 0.00 0.03 0.03 68 1018.2
20260504004953 26 111 4.8 14.5 0.00 0.03 0.03 68 1018.3
20260504004451 26 125 3.2 17.7 0.00 0.03 0.03 67 1018.3
20260504004208 26 104 4.8 17.7 0.00 0.03 0.03 68 1018.4
20260504003450 26 97 6.4 17.7 0.00 0.03 0.03 67 1018.4
20260504002949 26 143 6.4 17.7 0.00 0.03 0.03 69 1018.4
20260504002504 26 115 6.4 17.7 0.00 0.03 0.03 70 1018.5
20260504001941 26 144 6.4 17.7 0.00 0.03 0.03 71 1018.5
20260504001453 26 118 4.8 14.5 0.00 0.03 0.03 71 1018.6
20260504000939 26 122 4.8 16.1 0.00 0.03 0.03 71 1018.6
20260504000452 26 117 6.4 16.1 0.00 0.03 0.03 72 1018.7
20260503235939 25 121 6.4 16.1 0.00 0.03 0.03 72 1018.8
20260503235657 25 131 6.4 16.1 0.00 0.03 0.03 74 1018.8
20260503234936 25 120 6.4 16.1 0.00 0.03 0.03 76 1018.9
20260503234434 25 124 6.4 14.5 0.00 0.03 0.03 77 1018.8
20260503233929 25 106 4.8 14.5 0.00 0.03 0.03 77 1018.8
20260503233427 25 123 4.8 12.9 0.00 0.03 0.03 78 1018.7
20260503233148 24 68 4.8 12.9 0.00 0.03 0.03 80 1018.7
20260503232428 24 124 4.8 14.5 0.00 0.03 0.03 81 1018.6
20260503231903 24 120 3.2 14.5 0.00 0.03 0.03 83 1018.7
20260503231337 23 50 3.2 8.0 0.00 0.03 0.03 85 1018.5
20260503230813 23 128 3.2 8.0 0.00 0.03 0.03 86 1018.7
20260503230503 23 122 3.2 8.0 0.00 0.03 0.03 88 1018.7
20260503225718 22 113 3.2 6.4 0.00 0.03 0.03 90 1018.7
20260503225149 22 106 4.8 8.0 0.00 0.03 0.03 91 1018.7
20260503224637 22 120 3.2 8.0 0.00 0.03 0.03 92 1018.7
20260503224140 22 135 1.6 6.4 0.00 0.03 0.03 93 1018.8
20260503223610 21 135 1.6 6.4 0.00 0.03 0.03 94 1018.8
20260503223311 21 135 0.0 6.4 0.00 0.03 0.03 95 1018.9
20260503222518 21 231 1.6 4.8 0.00 0.03 0.03 95 1018.8
20260503221953 20 231 1.6 4.8 0.00 0.03 0.03 95 1018.8
20260503221425 20 231 1.6 4.8 0.00 0.03 0.03 95 1018.7
20260503220900 20 231 0.0 4.8 0.00 0.03 0.03 95 1018.8
20260503220335 20 231 0.0 3.2 0.00 0.03 0.03 95 1018.7
20260503215834 19 231 0.0 1.6 0.00 0.03 0.03 95 1018.7
20260503215556 19 231 0.0 1.6 0.00 0.03 0.03 95 1018.7
20260503214832 19 231 0.0 1.6 0.00 0.03 0.03 95 1018.7
20260503214330 18 231 0.0 0.0 0.00 0.03 0.03 95 1018.7
20260503213828 18 231 0.0 3.2 0.00 0.03 0.03 95 1018.7
20260503213543 18 231 0.0 3.2 0.00 0.03 0.03 95 1018.7
20260503213042 18 231 0.0 3.2 0.00 0.03 0.03 95 1018.7
20260503212323 18 231 0.0 0.0 0.00 0.03 0.03 95 1018.7
20260503212257 17 231 0.0 0.0 0.00 0.03 0.03 95 1018.7
20260503211321 17 231 0.0 0.0 0.00 0.03 0.03 95 1018.7